Powrót do katalogu

SEDNA-1

AktywnyNaukaSSO
NORAD 60580·PAYLOAD·🇺🇸 United States

Wystrzelony Aug 16, 2024 z Vandenberg Space Force Base

Loading…

Następne Przeloty (najbliższe 24 godziny)

TLE

ŚwieżeSource: Space-Track

Epoka: Sep 13, 2026, 18:02 UTC

1 60580U 24149DS  26256.75196279  .00004476  00000-0  29476-3 0  9998
2 60580  97.6588 336.8778 0009900  54.1489 306.0657 15.08005854113733

Śledź SEDNA-1 w czasie rzeczywistym z AllMySat

Download on the App Store